スペースウォッチ彗星

C/2004 HV60 ( Spacewatch )

English version
Home page
Updated on June 10, 2004

---------------------------------------------------------------------

・ プロフィール

発見日 2004年4月25日
発見光度 21.4等
発見者 J. V. Scotti (Spacewatch survey)

・ 軌道要素

T 2003 Dec. 21.526 TT                                   MPC
q   3.10499              (2000.0)            P               Q
                   Peri.  149.127       -0.586494       -0.400625
                   Node    44.849       -0.779409       +0.042732
e   1.0            Incl.   93.488       +0.220333       -0.915245
>From 19 observations 2004 Apr. 25-May 8.

・ 星図

・ 光度変化

        m1 = 13.0 + 5 logΔ + 10.0 log r

---------------------------------------------------------------------

軌道要素はM.P.E.C. 2004-J34に掲載されたものです。
星図は StellaNavigator Ver.2.0 for Windows (アストロアーツ 編著 / アスキー出版局刊) で作成したものです。
光度グラフはComet for Windowsで作成したものです。

---------------------------------------------------------------------

Copyright(C) Seiichi Yoshida (comet@aerith.net). All rights reserved.